Regional Weather Roundup
Issued by NWS

Home | Current Version | Previous Version | Text Only | Print | Product List | Glossary Off
Versions: 1 2 3 4 5 6 7 8 9 10 11 12 13 14 15 16 17 18 19 20 21 22 23 24 25 26 27 28 29 30 31 32 33 34 35 36 37 38 39 40 41 42 43 44 45 46 47 48 49 50

774
ASUS43 KLOT 012003
RWRIL

ILLINOIS REGIONAL WEATHER ROUNDUP
NATIONAL WEATHER SERVICE CHICAGO/ROMEOVILLE IL
300 PM CDT SUN MAY 01 2016

NOTE: "FAIR" INDICATES FEW OR NO CLOUDS BELOW 12,000 FEET WITH NO
SIGNIFICANT WEATHER AND/OR OBSTRUCTIONS TO VISIBILITY.

* THESE STATIONS ARE NOT UNDER NWS QUALITY CONTROL. THEY ALSO MAY NOT
  REPORT WEATHER SUCH AS PRECIPITATION OR FOG.

ILZ001-002-007-009-015-016-024-012100-
NORTHWEST ILLINOIS

CITY           SKY/WX    TMP DP  RH WIND       PRES   REMARKS
MOLINE         CLOUDY    52  46  80 E9        29.99S
STERLING*      CLOUDY    52  46  82 NE13      30.01S
$$

ILZ003-004-008-010-011-017-018-012100-
NORTH CENTRAL ILLINOIS

CITY           SKY/WX    TMP DP  RH WIND       PRES   REMARKS
ROCKFORD       CLOUDY    53  45  74 E12       30.03R
FREEPORT*      CLOUDY    51  46  83 NE8       30.03S
ROCHELLE*      CLOUDY    50  46  88 NE10      30.01S
DE KALB*       CLOUDY    49  46  90 NE13      30.01S
$$

ILZ005-006-012>014-019>023-012100-
NORTHEAST ILLINOIS

CITY           SKY/WX    TMP DP  RH WIND       PRES   REMARKS
CHICAGO-OHARE  CLOUDY    48  44  86 NE10      30.00S
CHICAGO-MIDWAY CLOUDY    51  45  79 N9        30.00F
AURORA         CLOUDY    51  46  83 NE10      30.01R
LANSING*       CLOUDY    50  46  86 N10       29.99F FOG
WAUKEGAN       CLOUDY    47  42  83 N14G20    30.02R
DUPAGE AIRPORT CLOUDY    50  44  80 NE12      30.00R
WHEELING       CLOUDY    48  43  82 NE10      30.03R
MORRIS*        CLOUDY    52  47  83 NE5       29.98S
NORTHERLY ISL    N/A     46  43  89 N12         N/A
NORTHERLY ISL    N/A     46  43  89 N12         N/A
$$

LMZ740>746-012100-
SOUTHERN LAKE MICHIGAN

STATION/POSITION SKY/WX   TEMP    WIND        PRES    VSBY  WAVE
                          AIR SEA DIR/SP/G                  HT/PER
                          (F)     (DEG/KT/KT) (MB)    (MI)  (FT/S)
SOUTHERN BUOY              42 40   20/ 10/ 10 1016.0          2/ 4
HARRISON CRIB              44      20/ 12/ 13   N/A
BURNHAM HARBOR             45     350/  8/ 11   N/A
CALUMET HARBOR             44     350/ 10/ 12 1015.6R
BURNS HARBOR               45      20/  9/ 11 1016.3R
MICHIGAN CITY              45     360/  9/ 10   N/A
ST. JOSEPH                 47 48                N/A           2/ 5
$$

ILZ025>027-034>036-040-047-049-050-058-095>099-012100-
WEST-CENTRAL ILLINOIS

CITY           SKY/WX    TMP DP  RH WIND       PRES   REMARKS
QUINCY         CLOUDY    55  52  89 N5        29.95F FOG
MACOMB*        CLOUDY    54  52  92 CALM      29.99R
PITTSFIELD*    CLOUDY    61  56  83 NE3       29.95F
$$

ILZ028>032-037-038-041>044-048-051>054-059>061-012100-
CENTRAL ILLINOIS

CITY           SKY/WX    TMP DP  RH WIND       PRES   REMARKS
BLOOMINGTON    CLOUDY    56  56 100 NE12      29.96F FOG
DECATUR        CLOUDY    67  58  72 CALM      29.92F
PEORIA         CLOUDY    54  50  86 E8        29.95F FOG
LINCOLN*       CLOUDY    61  57  88 NE8       29.93F FOG
SPRINGFIELD    CLOUDY    64  57  78 S6        29.92F
TAYLORVILLE    NOT AVBL
$$

ILZ033-039-045-046-055>057-062-063-012100-
EAST-CENTRAL ILLINOIS

CITY           SKY/WX    TMP DP  RH WIND       PRES   REMARKS
CHAMPAIGN      PTSUNNY   66  59  78 E6        29.92F
MATTOON        CLOUDY    68  58  70 CALM      29.91F
$$

ILZ079-100>102-012100-
SOUTHWEST ILLINOIS

CITY           SKY/WX    TMP DP  RH WIND       PRES   REMARKS
BELLEVILLE     PTSUNNY   73  60  63 W6        29.90F
CAHOKIA*       PTSUNNY   73  58  59 VRB7      29.90F
SPARTA*        PTSUNNY   73  61  67 W7        29.92F
$$

ILZ064>066-069>071-074>076-080>082-084>086-088>090-092>094-012100-
SOUTH-CENTRAL ILLINOIS

CITY           SKY/WX    TMP DP  RH WIND       PRES   REMARKS
CARBONDALE     PTSUNNY   77  61  57 N6        29.90F
CAIRO*         PTSUNNY   77  66  68 SW7       29.91S
EFFINGHAM*     PTSUNNY   72  62  72 CALM      29.93S
MARION         MOSUNNY   77  64  65 W9        29.91F
MT. VERNON     MOSUNNY   75  61  60 SW12      29.92S
SALEM*         MOSUNNY   74  63  66 W9        29.91F
$$

ILZ067-068-072-073-078-083-087-091-012100-
SOUTHEAST ILLINOIS

CITY           SKY/WX    TMP DP  RH WIND       PRES   REMARKS
LAWRENCEVILLE  PTSUNNY   78  63  59 VRB7      29.89F HX  80
FLORA*         MOSUNNY   78  63  60 W8        29.90S HX  80
HARRISBURG*    MOSUNNY   77  64  64 W6        29.90F
ROBINSON*      MOSUNNY   74  62  65 NW5       29.91S
CARMI*         PTSUNNY   76  65  68 W10       29.89F
$$

ABBREVIATIONS USED IN REMARKS
   TC - TEMPERATURE IN CELSIUS
  WCI - WIND CHILL INDEX
   HX - HEAT INDEX
  VSB - VISIBILITY
$$





USA.gov is the U.S. government's official web portal to all federal, state and local government web resources and services.